Time,TemperatureF,DewpointF,PressureIn,WindDirection,WindDirectionDegrees,WindSpeedMPH,WindSpeedGustMPH,Humidity,HourlyPrecipIn,Conditions,Clouds,dailyrainin,SoftwareType,DateUTC
2013-10-05 00:22:00,61.0,58.0,-100.00,NNE,20,3.0,9.0,90,-99.99,,,-99.99,,2013-10-05 05:22:00,
2013-10-05 00:34:00,61.0,58.0,-100.00,NNE,20,3.0,9.0,90,-99.99,,,-99.99,,2013-10-05 05:34:00,
2013-10-05 00:43:00,61.0,58.0,-100.00,NNE,20,3.0,9.0,90,-99.99,,,-99.99,,2013-10-05 05:43:00,
2013-10-05 00:52:00,61.0,58.0,-100.00,NE,45,3.0,8.0,90,-99.99,,,-99.99,,2013-10-05 05:52:00,
2013-10-05 01:22:00,61.0,58.0,-100.00,NE,45,3.0,8.0,90,-99.99,,,-99.99,,2013-10-05 06:22:00,
2013-10-05 01:32:00,61.0,58.0,-100.00,NE,45,3.0,8.0,90,-99.99,,,-99.99,,2013-10-05 06:32:00,
2013-10-05 01:42:00,61.0,58.0,-100.00,NE,45,3.0,8.0,90,-99.99,,,-99.99,,2013-10-05 06:42:00,
2013-10-05 01:52:00,61.0,58.0,-100.00,NE,45,1.0,3.0,90,-99.99,,,-99.99,,2013-10-05 06:52:00,
2013-10-05 02:22:00,61.0,58.0,-100.00,NE,45,1.0,3.0,90,-99.99,,,-99.99,,2013-10-05 07:22:00,
2013-10-05 02:32:00,61.0,58.0,-100.00,NE,45,1.0,3.0,90,-99.99,,,-99.99,,2013-10-05 07:32:00,
2013-10-05 02:42:00,61.0,58.0,-100.00,NE,45,1.0,3.0,90,-99.99,,,-99.99,,2013-10-05 07:42:00,
2013-10-05 02:52:00,62.0,58.0,-100.00,NNW,345,2.0,6.0,90,-99.99,,,-99.99,,2013-10-05 07:52:00,
2013-10-05 03:23:00,62.0,58.0,-100.00,NNW,345,2.0,6.0,90,-99.99,,,-99.99,,2013-10-05 08:23:00,
2013-10-05 03:32:00,62.0,58.0,-100.00,NNW,345,2.0,6.0,90,-99.99,,,-99.99,,2013-10-05 08:32:00,
2013-10-05 03:42:00,62.0,58.0,-100.00,NNW,345,2.0,6.0,90,-99.99,,,-99.99,,2013-10-05 08:42:00,
2013-10-05 03:52:00,62.0,59.0,-100.00,NE,35,1.0,3.0,90,-99.99,,,-99.99,,2013-10-05 08:52:00,
2013-10-05 04:22:00,62.0,59.0,-100.00,NE,35,1.0,3.0,90,-99.99,,,-99.99,,2013-10-05 09:22:00,
2013-10-05 04:33:00,62.0,59.0,-100.00,NE,35,1.0,3.0,90,-99.99,,,-99.99,,2013-10-05 09:33:00,
2013-10-05 04:43:00,62.0,59.0,-100.00,NE,35,1.0,3.0,90,-99.99,,,-99.99,,2013-10-05 09:43:00,
2013-10-05 04:52:00,62.0,59.0,-100.00,NNE,20,1.0,6.0,90,-99.99,,,-99.99,,2013-10-05 09:52:00,
2013-10-05 05:23:00,62.0,59.0,-100.00,NNE,20,1.0,6.0,90,-99.99,,,-99.99,,2013-10-05 10:23:00,
2013-10-05 05:32:00,62.0,59.0,-100.00,NNE,20,1.0,6.0,90,-99.99,,,-99.99,,2013-10-05 10:32:00,
2013-10-05 05:43:00,62.0,59.0,-100.00,NNE,20,1.0,6.0,90,-99.99,,,-99.99,,2013-10-05 10:43:00,
2013-10-05 05:52:00,62.0,59.0,-100.00,NE,35,0.0,1.0,90,-99.99,,,-99.99,,2013-10-05 10:52:00,
2013-10-05 06:22:00,62.0,59.0,-100.00,NE,35,0.0,1.0,90,-99.99,,,-99.99,,2013-10-05 11:22:00,
2013-10-05 06:33:00,62.0,59.0,-100.00,NE,35,0.0,1.0,90,-99.99,,,-99.99,,2013-10-05 11:33:00,
2013-10-05 06:43:00,62.0,59.0,-100.00,NE,35,0.0,1.0,90,-99.99,,,-99.99,,2013-10-05 11:43:00,
2013-10-05 06:52:00,62.0,59.0,-100.00,NNE,20,0.0,1.0,90,-99.99,,,-99.99,,2013-10-05 11:52:00,
2013-10-05 07:22:00,62.0,59.0,-100.00,NNE,20,0.0,1.0,90,-99.99,,,-99.99,,2013-10-05 12:22:00,
2013-10-05 07:32:00,62.0,59.0,-100.00,NNE,20,0.0,1.0,90,-99.99,,,-99.99,,2013-10-05 12:32:00,
2013-10-05 07:42:00,62.0,59.0,-100.00,NNE,20,0.0,1.0,90,-99.99,,,-99.99,,2013-10-05 12:42:00,
2013-10-05 07:52:00,63.0,60.0,-100.00,NE,35,0.0,3.0,90,-99.99,,,-99.99,,2013-10-05 12:52:00,
2013-10-05 08:22:00,63.0,60.0,-100.00,NE,35,0.0,3.0,90,-99.99,,,-99.99,,2013-10-05 13:22:00,
2013-10-05 08:32:00,63.0,60.0,-100.00,NE,35,0.0,3.0,90,-99.99,,,-99.99,,2013-10-05 13:32:00,
2013-10-05 08:42:00,63.0,60.0,-100.00,NE,35,0.0,3.0,90,-99.99,,,-99.99,,2013-10-05 13:42:00,
2013-10-05 08:52:00,64.0,61.0,-100.00,NE,35,1.0,4.0,90,-99.99,,,-99.99,,2013-10-05 13:52:00,
2013-10-05 09:22:00,64.0,61.0,-100.00,NE,35,1.0,4.0,90,-99.99,,,-99.99,,2013-10-05 14:22:00,
2013-10-05 09:32:00,64.0,61.0,-100.00,NE,35,1.0,4.0,90,-99.99,,,-99.99,,2013-10-05 14:32:00,
2013-10-05 09:42:00,64.0,61.0,-100.00,NE,35,1.0,4.0,90,-99.99,,,-99.99,,2013-10-05 14:42:00,
2013-10-05 09:52:00,66.0,63.0,-100.00,WNW,295,0.0,1.0,90,-99.99,,,-99.99,,2013-10-05 14:52:00,
2013-10-05 10:22:00,66.0,63.0,-100.00,WNW,295,0.0,1.0,90,-99.99,,,-99.99,,2013-10-05 15:22:00,
2013-10-05 10:33:00,66.0,63.0,-100.00,WNW,295,0.0,1.0,90,-99.99,,,-99.99,,2013-10-05 15:33:00,
2013-10-05 10:44:00,66.0,63.0,-100.00,WNW,295,0.0,1.0,90,-99.99,,,-99.99,,2013-10-05 15:44:00,
2013-10-05 10:52:00,68.0,65.0,-100.00,ENE,75,0.0,3.0,90,-99.99,,,-99.99,,2013-10-05 15:52:00,
2013-10-05 11:23:00,68.0,65.0,-100.00,ENE,75,0.0,3.0,90,-99.99,,,-99.99,,2013-10-05 16:23:00,
2013-10-05 11:33:00,68.0,65.0,-100.00,ENE,75,0.0,3.0,90,-99.99,,,-99.99,,2013-10-05 16:33:00,
2013-10-05 11:43:00,68.0,65.0,-100.00,ENE,75,0.0,3.0,90,-99.99,,,-99.99,,2013-10-05 16:43:00,
2013-10-05 11:52:00,71.0,67.0,-100.00,ESE,115,1.0,4.0,90,-99.99,,,-99.99,,2013-10-05 16:52:00,
2013-10-05 12:22:00,71.0,67.0,-100.00,ESE,115,1.0,4.0,90,-99.99,,,-99.99,,2013-10-05 17:22:00,
2013-10-05 12:33:00,71.0,67.0,-100.00,ESE,115,1.0,4.0,90,-99.99,,,-99.99,,2013-10-05 17:33:00,
2013-10-05 12:42:00,71.0,67.0,-100.00,ESE,115,1.0,4.0,90,-99.99,,,-99.99,,2013-10-05 17:42:00,
2013-10-05 12:52:00,71.0,68.0,-100.00,SE,140,0.0,5.0,90,-99.99,,,-99.99,,2013-10-05 17:52:00,
2013-10-05 13:22:00,71.0,68.0,-100.00,SE,140,0.0,5.0,90,-99.99,,,-99.99,,2013-10-05 18:22:00,
2013-10-05 13:32:00,71.0,68.0,-100.00,SE,140,0.0,5.0,90,-99.99,,,-99.99,,2013-10-05 18:32:00,
2013-10-05 13:42:00,71.0,68.0,-100.00,SE,140,0.0,5.0,90,-99.99,,,-99.99,,2013-10-05 18:42:00,
2013-10-05 13:52:00,72.0,69.0,-100.00,ENE,75,4.0,7.0,89,-99.99,,,-99.99,,2013-10-05 18:52:00,
2013-10-05 14:22:00,72.0,69.0,-100.00,ENE,75,4.0,7.0,89,-99.99,,,-99.99,,2013-10-05 19:22:00,
2013-10-05 14:32:00,72.0,69.0,-100.00,ENE,75,4.0,7.0,89,-99.99,,,-99.99,,2013-10-05 19:32:00,
2013-10-05 14:42:00,72.0,69.0,-100.00,ENE,75,4.0,7.0,89,-99.99,,,-99.99,,2013-10-05 19:42:00,
2013-10-05 14:52:00,65.0,62.0,-100.00,East,85,4.0,6.0,90,-99.99,,,-99.99,,2013-10-05 19:52:00,
2013-10-05 15:22:00,65.0,62.0,-100.00,East,85,4.0,6.0,90,-99.99,,,-99.99,,2013-10-05 20:22:00,
2013-10-05 15:32:00,65.0,62.0,-100.00,East,85,4.0,6.0,90,-99.99,,,-99.99,,2013-10-05 20:32:00,
2013-10-05 15:42:00,65.0,62.0,-100.00,East,85,4.0,6.0,90,-99.99,,,-99.99,,2013-10-05 20:42:00,
2013-10-05 15:52:00,66.0,63.0,-100.00,South,185,2.0,6.0,90,-99.99,,,-99.99,,2013-10-05 20:52:00,
2013-10-05 16:22:00,66.0,63.0,-100.00,South,185,2.0,6.0,90,-99.99,,,-99.99,,2013-10-05 21:22:00,
2013-10-05 16:33:00,66.0,63.0,-100.00,South,185,2.0,6.0,90,-99.99,,,-99.99,,2013-10-05 21:33:00,
2013-10-05 16:44:00,66.0,63.0,-100.00,South,185,2.0,6.0,90,-99.99,,,-99.99,,2013-10-05 21:44:00,
2013-10-05 16:52:00,66.0,63.0,-100.00,East,90,0.0,1.0,90,-99.99,,,-99.99,,2013-10-05 21:52:00,
2013-10-05 17:24:00,66.0,63.0,-100.00,East,90,0.0,1.0,90,-99.99,,,-99.99,,2013-10-05 22:24:00,
2013-10-05 17:33:00,66.0,63.0,-100.00,East,90,0.0,1.0,90,-99.99,,,-99.99,,2013-10-05 22:33:00,
2013-10-05 17:42:00,66.0,63.0,-100.00,East,90,0.0,1.0,90,-99.99,,,-99.99,,2013-10-05 22:42:00,
2013-10-05 17:52:00,66.0,63.0,-100.00,NNW,345,0.0,4.0,90,-99.99,,,-99.99,,2013-10-05 22:52:00,
2013-10-05 18:22:00,66.0,63.0,-100.00,NNW,345,0.0,4.0,90,-99.99,,,-99.99,,2013-10-05 23:22:00,
2013-10-05 18:33:00,66.0,63.0,-100.00,NNW,345,0.0,4.0,90,-99.99,,,-99.99,,2013-10-05 23:33:00,
2013-10-05 18:43:00,66.0,63.0,-100.00,NNW,345,0.0,4.0,90,-99.99,,,-99.99,,2013-10-05 23:43:00,
2013-10-05 18:52:00,65.0,62.0,-100.00,ENE,70,6.0,14.0,90,-99.99,,,-99.99,,2013-10-05 23:52:00,
2013-10-05 19:23:00,65.0,62.0,-100.00,ENE,70,6.0,14.0,90,-99.99,,,-99.99,,2013-10-06 00:23:00,
2013-10-05 19:32:00,65.0,62.0,-100.00,ENE,70,6.0,14.0,90,-99.99,,,-99.99,,2013-10-06 00:32:00,
2013-10-05 19:43:00,65.0,62.0,-100.00,ENE,70,6.0,14.0,90,-99.99,,,-99.99,,2013-10-06 00:43:00,
2013-10-05 19:52:00,64.0,61.0,-100.00,ENE,75,4.0,9.0,90,-99.99,,,-99.99,,2013-10-06 00:52:00,
2013-10-05 20:22:00,64.0,61.0,-100.00,ENE,75,4.0,9.0,90,-99.99,,,-99.99,,2013-10-06 01:22:00,
2013-10-05 20:32:00,64.0,61.0,-100.00,ENE,75,4.0,9.0,90,-99.99,,,-99.99,,2013-10-06 01:32:00,
2013-10-05 20:42:00,64.0,61.0,-100.00,ENE,75,4.0,9.0,90,-99.99,,,-99.99,,2013-10-06 01:42:00,
2013-10-05 20:52:00,64.0,61.0,-100.00,SE,125,2.0,7.0,90,-99.99,,,-99.99,,2013-10-06 01:52:00,
2013-10-05 21:22:00,64.0,61.0,-100.00,SE,125,2.0,7.0,90,-99.99,,,-99.99,,2013-10-06 02:22:00,
2013-10-05 21:32:00,64.0,61.0,-100.00,SE,125,2.0,7.0,90,-99.99,,,-99.99,,2013-10-06 02:32:00,
2013-10-05 21:42:00,64.0,61.0,-100.00,SE,125,2.0,7.0,90,-99.99,,,-99.99,,2013-10-06 02:42:00,
2013-10-05 21:52:00,65.0,62.0,-100.00,SE,145,3.0,6.0,90,-99.99,,,-99.99,,2013-10-06 02:52:00,
2013-10-05 22:22:00,65.0,62.0,-100.00,SE,145,3.0,6.0,90,-99.99,,,-99.99,,2013-10-06 03:22:00,
2013-10-05 22:34:00,65.0,62.0,-100.00,SE,145,3.0,6.0,90,-99.99,,,-99.99,,2013-10-06 03:34:00,
2013-10-05 22:44:00,65.0,62.0,-100.00,SE,145,3.0,6.0,90,-99.99,,,-99.99,,2013-10-06 03:44:00,
2013-10-05 22:52:00,65.0,62.0,-100.00,SSE,155,4.0,9.0,90,-99.99,,,-99.99,,2013-10-06 03:52:00,
2013-10-05 23:24:00,65.0,62.0,-100.00,SSE,155,4.0,9.0,90,-99.99,,,-99.99,,2013-10-06 04:24:00,
2013-10-05 23:34:00,65.0,62.0,-100.00,SSE,155,4.0,9.0,90,-99.99,,,-99.99,,2013-10-06 04:34:00,
2013-10-05 23:44:00,65.0,62.0,-100.00,SSE,155,4.0,9.0,90,-99.99,,,-99.99,,2013-10-06 04:44:00,
2013-10-05 23:52:00,65.0,62.0,-100.00,SE,130,2.0,7.0,90,-99.99,,,-99.99,,2013-10-06 04:52:00,